Flag for U.S.A. Weather past 2 weeks in Minot, North Dakota, U.S.A.

Now
9 °F

Overcast.


Feels Like: -7 °F
Forecast: -3 / 21 °F
Wind: 14 mph from Northeast

Location: Minot International Airport

Current Time: Jan 31, 2015 at 7:56:38 AM

Latest Report: Jan 31, 2015 at 6:54 AM


Visibility: 10 mi

Pressure: 30.41 "Hg

Humidity: 66%

Dew point: 0 °F

Location of MinotLocation

Historic Weather in Minot — Graph

°F

Minot temperature yesterday

Maximum temperature yesterday: 37 °F (at 12:54 PM)
Minimum temperature yesterday: 15 °F (at 12:54 AM)
Average temperature yesterday: 25 °F

Past Weeks' High & Low Weather Summary

 TemperatureHumidityPressure
High48 °F (Jan 27, 2:54 PM)96% (Jan 24, 11:54 PM)30.59 "Hg (Jan 24, 11:54 PM)
Low9 °F (Jan 31, 6:54 AM)52% (Jan 22, 12:54 PM)29.45 "Hg (Jan 16, 10:54 PM)
Average29 °F79%29.98 "Hg
* Reported Jan 16 6:54 AM — Jan 31 6:54 AM, Minot, Weather by CustomWeather, © 2014

Note: Actual official high and low records may vary slightly from our data, if they occured in-between our weather recording intervals... More about our weather records

Advertising

Minot weather history for previous 24 hours

 ConditionsComfort  
Time TempWeatherWind HumidityBarometerVisibility
6:54 AM
Jan 31
9 °FOvercast.14 mph66%30.41 "Hg10 mi
5:54 AM11 °FOvercast.15 mph73%30.39 "Hg10 mi
4:54 AM16 °FLow clouds.12 mph84%30.36 "Hg9 mi
3:54 AM18 °FOvercast.13 mph80%30.34 "Hg9 mi
2:54 AM18 °FOvercast.14 mph84%30.32 "Hg9 mi
1:54 AM19 °FOvercast.13 mph81%30.31 "Hg9 mi
12:54 AM20 °FLow clouds.9 mph82%30.30 "Hg8 mi
11:54 PM
Jan 30
20 °FLow clouds.13 mph85%30.30 "Hg7 mi
10:54 PM24 °FLow clouds.12 mph81%30.29 "Hg8 mi
9:54 PM24 °FLow clouds.10 mph84%30.29 "Hg8 mi
8:54 PM25 °FLow clouds.9 mph85%30.28 "Hg7 mi
7:54 PM25 °FIce fog.13 mph85%30.29 "Hg6 mi
6:54 PM24 °FLow clouds.16 mph84%30.29 "Hg7 mi
5:54 PM27 °FLow clouds.18 mph81%30.26 "Hg7 mi
4:54 PM29 °FOvercast.15 mph82%30.24 "Hg7 mi
3:54 PM30 °FOvercast.18 mph79%30.23 "Hg7 mi
2:54 PM31 °FLow clouds.21 mph79%30.22 "Hg6 mi
2:01 PM32 °FPartly sunny.21 mph79%30.14 "Hg5 mi
12:54 PM37 °FSunny.18 mph67%30.21 "Hg10 mi
11:54 AM36 °FSunny.14 mph64%30.21 "Hg10 mi
10:54 AM32 °FSunny.13 mph66%30.22 "Hg10 mi
9:54 AM27 °FSunny.10 mph69%30.21 "Hg10 mi
8:54 AM23 °FSunny.13 mph74%30.22 "Hg9 mi
7:54 AM23 °FClear.14 mph74%30.21 "Hg10 mi
Weather by CustomWeather, © 2014

See weather overviewHow to use our weather pages